Location: Clanezzo
(45.7500°N, 9.6000°E)
Time: 09:34:20
(UTC+00:00)

CUTE-I - Pass Details

Date: 07 December 2023
Orbit: 807 x 822 km, 98.7° (Epoch: 23 February)

Event Time Altitude Azimuth Distance (km) Brightness Sun altitude
Rises 04:31:01 0° 28° (NNE) 3,363 ? -23.1°
Reaches altitude 10° 04:34:04 10° 45° (NE) 2,427 ? -22.5°
Maximum altitude 04:37:52 19° 91° (E) 1,849 ? -21.9°
Drops below altitude 10° 04:41:39 10° 136° (SE) 2,418 ? -21.2°
Sets 04:44:40 0° 154° (SSE) 3,345 ? -20.7°
